Wind_Speed
13 13 12 13 12 12 11 10 10 10 10 9 9 8 8 8 9 10 10 10 10 11 9 9 10 10 10 10 10 10 11 10 10 10 10 10 11 12 13 14 14 14 14
15 14 13 14 13 13 13 12 12 11 11 11 10 10 9 10 10 10 11 10 11 10 10 10 11 11 11 11 11 11 11 11 12 12 12 11 12 13 14 14 14 15 15
16 15 15 15 15 13 13 13 13 12 12 12 11 11 11 11 11 12 12 11 11 11 11 11 11 11 11 11 12 12 12 13 13 13 13 13 13 14 14 15 16 16 16
17 16 15 15 15 14 14 13 13 13 13 13 12 12 12 12 12 12 12 11 12 12 12 12 12 12 12 12 12 13 13 13 13 14 14 14 15 14 14 15 16 16 17
19 18 17 17 17 16 16 15 15 14 14 14 14 13 13 12 12 12 12 12 11 12 13 13 13 13 13 13 13 14 14 15 15 15 15 15 15 16 16 16 16 17 17
20 20 20 19 19 18 17 17 16 16 16 15 15 14 13 13 13 12 13 13 13 13 14 14 14 15 14 14 14 15 15 16 16 16 16 16 17 17 17 17 17 18 18
21 21 21 21 20 19 18 18 18 17 17 16 16 15 15 14 14 13 14 14 14 14 15 16 16 16 16 15 16 16 16 17 18 18 17 17 18 18 17 18 18 19 19
21 21 21 21 21 20 19 19 19 19 18 17 17 16 16 15 15 15 15 16 16 16 16 17 17 17 17 17 17 17 17 17 17 18 18 18 18 18 17 18 19 19 20
21 22 22 22 22 21 21 20 20 20 19 19 18 17 17 17 16 16 16 16 17 17 17 18 18 18 18 18 18 18 18 18 18 18 18 18 18 17 18 18 19 20 21
22 21 22 22 22 22 22 22 21 22 22 21 20 19 18 18 17 18 18 18 19 19 19 19 19 20 20 20 20 20 20 19 19 19 19 18 18 19 19 19 20 21 22
23 22 21 22 22 22 22 22 23 23 23 22 21 20 19 19 19 20 20 20 21 21 21 21 21 21 21 21 21 21 21 20 20 20 20 20 20 20 20 21 22 22 22
23 23 23 23 23 23 23 23 23 24 23 23 22 21 21 21 21 21 21 21 22 22 22 22 22 22 22 22 22 22 22 21 22 21 21 21 21 21 22 22 22 23 23
22 22 23 23 23 23 24 24 24 23 23 23 23 22 22 22 22 22 22 22 23 23 23 23 23 23 23 23 23 23 22 22 22 22 22 22 22 22 23 23 23 23 24
22 23 23 24 24 24 24 24 24 24 24 24 24 24 24 24 23 23 23 23 24 24 24 24 25 24 24 24 24 24 23 24 23 23 24 24 24 24 24 24 25 25 25
23 24 23 24 24 25 25 25 24 24 24 25 25 25 26 25 25 24 24 24 25 25 25 25 26 26 26 26 26 25 25 25 25 25 25 25 25 25 25 25 25 26 26
24 24 24 25 25 25 26 26 25 25 25 25 26 26 27 27 26 25 25 25 25 25 26 26 26 27 27 27 27 27 27 27 27 26 25 25 25 25 25 25 25 25 25
25 25 26 26 25 25 25 25 25 25 26 26 27 27 27 27 27 27 26 26 26 27 27 27 27 27 28 28 28 28 28 28 27 27 26 26 27 26 26 26 26 25 25
25 25 25 26 26 25 25 25 26 26 26 27 27 28 28 28 27 27 26 27 27 27 27 27 27 28 28 29 29 29 28 27 27 27 27 27 27 27 27 26 26 26 26
24 25 25 25 25 26 25 26 26 27 27 27 27 27 27 27 27 27 26 26 26 26 27 27 28 28 29 29 29 28 28 27 28 28 27 27 27 28 27 27 27 27 27
24 24 25 24 24 24 24 24 25 26 27 27 27 26 26 26 26 26 27 27 28 27 27 28 28 29 28 28 28 28 28 28 28 28 27 27 27 27 27 27 27 27 27
24 23 23 24 24 24 24 24 24 25 25 26 26 26 26 26 26 26 27 27 27 27 27 27 27 27 27 26 27 27 27 27 27 27 27 27 27 27 27 27 27 27 27
24 24 24 24 24 24 25 25 25 25 25 25 25 26 26 26 26 26 26 27 27 27 27 26 25 25 25 25 25 26 26 26 25 24 25 25 26 26 26 26 27 27 28
23 23 23 24 25 25 25 24 24 25 25 25 25 25 26 26 26 27 27 26 26 26 25 25 24 24 24 23 23 24 24 24 24 24 24 24 25 25 26 26 27 27 28
23 24 24 24 24 25 25 25 25 25 25 25 25 25 25 25 25 25 25 25 25 25 24 24 23 23 22 23 23 23 22 23 23 24 24 25 25 25 25 26 27 27 27
24 24 25 25 25 26 25 25 25 25 25 24 25 25 25 24 24 24 24 24 24 25 24 24 24 23 23 23 23 23 23 24 23 23 24 24 24 25 25 26 26 25 25
25 25 26 26 26 26 25 25 24 23 23 24 24 25 26 25 25 25 25 25 24 25 25 25 24 23 23 22 23 23 23 22 22 22 22 23 23 24 25 25 25 25 25
Wind_Direction
266 266 270 276 278 279 280 279 280 283 283 288 291 291 292 290 290 281 272 267 261 259 260 264 266 269 269 272 273 274 268 263 262 262 263 263 261 258 259 261 256 256 257
264 269 269 271 275 275 276 277 274 276 281 284 285 285 287 289 291 287 273 266 263 260 263 266 267 267 269 271 272 273 270 265 263 263 263 263 264 262 262 261 258 258 259
262 266 266 267 269 271 274 273 268 271 274 279 282 283 286 286 286 280 271 267 265 264 262 265 264 265 269 270 270 272 270 267 264 263 263 262 267 267 264 262 259 259 260
259 262 264 264 264 266 267 268 269 270 272 276 279 284 286 286 284 282 271 266 268 270 267 267 266 265 267 268 271 271 272 268 265 265 266 267 268 269 267 266 262 261 260
257 260 262 261 261 263 265 266 269 269 272 276 280 283 283 285 282 281 273 269 271 273 272 271 270 269 267 268 272 272 271 268 266 266 267 270 271 271 270 266 263 261 260
254 258 261 260 259 262 265 266 267 269 272 274 275 278 280 281 279 278 274 270 270 271 272 273 272 270 269 270 271 272 269 268 268 268 269 270 270 272 271 268 266 265 263
254 257 260 260 260 262 264 263 265 269 270 273 274 274 278 277 275 275 273 270 269 269 271 270 272 271 270 271 272 270 268 267 267 269 271 272 272 272 271 270 271 268 266
255 256 258 259 260 262 263 262 263 266 268 270 274 275 275 273 272 272 272 271 271 270 272 270 270 270 269 268 271 270 268 268 269 269 270 271 271 271 272 272 272 271 270
257 255 255 256 258 260 261 262 262 265 266 268 272 274 271 271 271 271 272 272 273 273 274 273 272 273 271 269 268 269 268 268 269 269 270 270 271 273 274 273 273 272 270
257 257 255 255 256 259 260 262 264 265 265 268 270 271 270 270 272 272 273 275 275 274 273 274 273 273 270 267 267 268 270 271 269 269 270 271 272 272 273 274 275 273 271
257 258 256 256 257 259 261 263 264 264 265 268 269 270 271 271 273 273 273 275 275 275 277 276 275 274 272 270 270 270 270 271 270 269 268 271 272 274 274 274 274 274 272
256 256 256 257 258 259 260 262 264 263 264 267 269 271 272 271 271 273 274 275 275 275 276 277 276 275 272 271 271 270 271 272 271 270 270 271 272 274 274 275 274 274 273
257 256 257 257 258 260 261 262 264 265 266 267 268 269 270 271 271 273 276 277 275 274 274 275 276 276 275 274 273 273 272 273 274 272 272 272 273 274 274 273 273 275 275
259 259 258 256 256 259 261 263 264 265 266 266 266 268 269 270 271 273 275 275 276 275 274 274 276 277 275 274 274 273 271 272 272 272 272 272 273 274 274 274 274 274 275
258 259 258 258 257 260 262 263 264 266 266 265 266 267 269 269 271 273 273 273 274 274 274 275 274 275 275 274 273 272 272 272 272 271 273 272 273 273 274 275 275 274 274
258 257 258 259 260 261 263 264 265 266 266 266 268 268 269 269 270 272 273 272 273 274 275 275 274 274 275 274 271 270 272 273 272 271 271 272 273 274 276 276 275 275 274
258 258 259 260 261 263 264 264 264 266 267 268 269 269 270 271 270 271 272 272 272 274 275 274 275 274 274 274 274 272 271 271 270 270 270 271 273 274 276 276 276 276 275
257 258 259 260 261 263 264 265 265 267 268 268 268 267 268 269 270 271 271 272 272 272 273 275 276 275 275 275 274 273 271 270 269 269 270 270 271 272 274 274 275 275 275
258 258 260 260 261 263 265 265 267 269 268 268 269 269 268 269 270 270 271 272 272 273 274 275 276 277 277 276 274 273 269 268 267 268 268 268 270 271 272 273 274 274 275
259 258 257 259 261 265 266 267 268 270 268 266 267 267 268 269 269 270 271 272 273 274 276 277 277 277 276 277 274 270 268 268 268 268 267 267 269 270 270 271 273 274 275
260 257 257 260 263 264 265 267 269 270 268 266 265 266 269 269 269 269 271 273 275 276 277 277 277 276 277 277 275 272 269 270 268 268 267 267 269 270 270 271 272 273 274
259 260 260 260 262 264 265 268 268 268 268 267 266 267 267 268 269 271 272 272 274 276 276 277 276 277 278 278 275 271 270 271 271 269 268 267 268 269 271 272 273 273 274
259 261 262 261 262 264 265 267 267 266 267 267 266 265 266 269 271 271 272 272 274 276 277 277 276 277 278 279 276 271 271 270 272 270 267 267 268 270 271 273 274 275 277
259 261 263 263 262 263 265 266 268 267 265 266 265 265 266 270 272 272 273 275 275 276 276 275 276 277 277 276 274 272 272 272 272 271 269 267 268 270 272 274 275 276 278
262 264 265 266 265 263 263 265 268 267 264 264 263 263 266 269 271 273 274 275 275 277 275 274 274 274 273 275 274 272 272 275 274 270 270 269 269 271 272 274 275 276 277
262 264 265 266 266 264 262 262 265 265 264 262 261 263 265 268 270 271 273 274 276 275 273 275 273 271 272 273 273 273 273 272 270 269 270 269 270 272 274 275 275 275 278
Height
5875 5875 5875 5875 5874 5874 5873 5872 5872 5871 5870 5869 5869 5869 5868 5868 5867 5866 5866 5866 5865 5865 5865 5865 5865 5865 5865 5865 5864 5864 5863 5863 5863 5864 5863 5863 5863 5863 5863 5863 5864 5864 5864
5872 5872 5872 5872 5872 5871 5871 5870 5869 5869 5868 5867 5867 5866 5866 5865 5865 5864 5863 5863 5862 5862 5862 5862 5862 5862 5862 5862 5861 5861 5861 5860 5860 5861 5861 5861 5861 5860 5860 5860 5860 5861 5861
5869 5869 5869 5869 5868 5868 5868 5867 5866 5866 5865 5865 5864 5864 5863 5862 5861 5861 5860 5860 5859 5859 5859 5859 5859 5859 5859 5858 5858 5858 5858 5858 5857 5857 5858 5858 5858 5858 5857 5857 5857 5857 5857
5865 5865 5865 5865 5865 5865 5864 5864 5863 5863 5862 5862 5861 5861 5860 5859 5858 5857 5857 5856 5856 5856 5856 5856 5856 5855 5855 5855 5855 5854 5854 5854 5854 5854 5854 5855 5855 5854 5854 5854 5853 5853 5854
5860 5860 5861 5861 5861 5861 5861 5860 5860 5859 5859 5859 5858 5857 5856 5856 5855 5854 5854 5853 5853 5853 5853 5852 5852 5852 5852 5851 5851 5851 5851 5851 5851 5851 5850 5850 5850 5850 5850 5850 5850 5849 5849
5855 5856 5856 5856 5856 5857 5856 5856 5856 5856 5855 5855 5854 5854 5853 5852 5852 5851 5851 5850 5850 5850 5849 5849 5848 5848 5848 5848 5848 5847 5847 5847 5847 5847 5846 5847 5846 5846 5846 5845 5845 5845 5845
5850 5851 5851 5852 5852 5852 5852 5852 5852 5852 5851 5851 5850 5850 5849 5849 5848 5848 5847 5847 5847 5846 5845 5845 5845 5844 5844 5844 5843 5843 5843 5843 5843 5843 5842 5842 5842 5842 5841 5841 5841 5840 5840
5844 5845 5846 5846 5847 5847 5847 5847 5847 5847 5847 5846 5846 5845 5845 5845 5844 5844 5843 5843 5843 5842 5841 5841 5840 5840 5839 5839 5839 5839 5839 5839 5839 5838 5838 5838 5838 5837 5837 5837 5837 5836 5836
5838 5839 5840 5840 5841 5842 5842 5842 5842 5842 5842 5842 5841 5841 5841 5840 5840 5840 5839 5839 5839 5838 5837 5836 5836 5835 5835 5835 5834 5834 5834 5834 5834 5834 5833 5833 5833 5833 5832 5832 5832 5831 5831
5832 5833 5834 5834 5835 5836 5836 5836 5836 5836 5836 5836 5835 5836 5835 5835 5835 5835 5835 5834 5834 5833 5832 5831 5831 5831 5830 5830 5830 5829 5829 5829 5828 5828 5828 5828 5828 5827 5827 5827 5826 5826 5826
5826 5827 5828 5828 5829 5830 5830 5830 5830 5830 5830 5830 5830 5830 5830 5830 5830 5830 5829 5829 5828 5828 5827 5826 5826 5826 5825 5825 5825 5824 5824 5823 5823 5823 5822 5822 5822 5822 5822 5821 5821 5820 5820
5819 5820 5821 5822 5823 5823 5824 5824 5824 5824 5824 5825 5825 5824 5824 5825 5824 5824 5824 5823 5823 5822 5822 5821 5820 5820 5819 5819 5819 5819 5818 5818 5817 5817 5817 5816 5816 5816 5816 5815 5815 5814 5814
5813 5814 5815 5816 5816 5817 5817 5817 5818 5818 5818 5818 5818 5818 5818 5818 5818 5818 5818 5817 5816 5816 5815 5815 5814 5814 5813 5813 5813 5812 5812 5811 5811 5811 5810 5810 5810 5809 5809 5809 5808 5808 5807
5807 5807 5808 5809 5810 5810 5810 5811 5811 5811 5812 5812 5812 5812 5812 5812 5812 5812 5811 5811 5810 5809 5808 5808 5808 5807 5807 5807 5806 5806 5805 5805 5805 5804 5804 5804 5803 5803 5803 5802 5802 5801 5801
5800 5801 5801 5802 5803 5803 5804 5804 5804 5804 5804 5805 5805 5805 5805 5805 5805 5805 5804 5804 5803 5802 5802 5801 5801 5800 5800 5800 5799 5799 5798 5798 5798 5797 5797 5797 5796 5796 5796 5795 5795 5794 5793
5793 5794 5795 5795 5796 5796 5797 5797 5797 5797 5798 5798 5798 5798 5797 5797 5797 5797 5797 5796 5796 5795 5794 5794 5793 5793 5793 5792 5792 5791 5791 5790 5790 5790 5790 5790 5789 5789 5789 5788 5787 5786 5786
5787 5787 5788 5788 5788 5789 5789 5790 5790 5790 5790 5790 5790 5790 5790 5790 5790 5790 5789 5788 5788 5787 5787 5786 5786 5785 5785 5784 5783 5783 5783 5782 5782 5782 5782 5782 5782 5782 5781 5781 5780 5779 5778
5780 5780 5780 5781 5781 5782 5782 5782 5783 5783 5783 5783 5783 5782 5782 5782 5782 5782 5781 5781 5780 5779 5779 5779 5778 5777 5777 5776 5775 5774 5774 5774 5774 5774 5774 5774 5774 5774 5774 5773 5773 5772 5771
5772 5773 5773 5774 5774 5774 5775 5775 5775 5775 5775 5775 5775 5774 5774 5774 5774 5774 5774 5773 5772 5772 5771 5771 5770 5769 5768 5767 5767 5766 5765 5765 5765 5766 5766 5766 5767 5767 5766 5766 5765 5764 5764
5765 5765 5766 5766 5767 5767 5767 5767 5767 5767 5766 5766 5766 5767 5767 5766 5766 5766 5766 5765 5764 5764 5763 5763 5761 5760 5759 5759 5758 5757 5757 5757 5757 5757 5758 5758 5758 5758 5758 5758 5757 5757 5756
5757 5758 5759 5759 5760 5760 5760 5760 5759 5759 5758 5758 5759 5759 5759 5759 5759 5758 5758 5757 5757 5756 5755 5754 5753 5752 5751 5750 5749 5749 5749 5749 5749 5749 5749 5750 5750 5750 5750 5750 5749 5749 5748
5750 5751 5751 5752 5753 5753 5753 5753 5752 5751 5751 5751 5751 5752 5752 5751 5751 5750 5750 5749 5749 5748 5747 5746 5745 5744 5743 5742 5741 5741 5741 5741 5741 5740 5741 5741 5742 5742 5742 5742 5742 5741 5740
5743 5743 5744 5745 5745 5745 5745 5745 5745 5745 5744 5744 5744 5744 5744 5744 5743 5743 5742 5742 5741 5740 5739 5738 5737 5736 5735 5734 5733 5733 5733 5733 5733 5733 5733 5734 5734 5734 5734 5734 5734 5733 5732
5736 5736 5737 5737 5737 5737 5738 5738 5738 5737 5737 5737 5737 5737 5737 5737 5736 5735 5735 5734 5733 5732 5731 5730 5730 5729 5728 5727 5726 5726 5726 5725 5725 5725 5726 5726 5726 5726 5726 5726 5725 5725 5724
5728 5729 5729 5729 5730 5730 5730 5730 5730 5730 5730 5730 5730 5730 5730 5729 5729 5728 5728 5727 5726 5725 5723 5723 5722 5722 5721 5721 5720 5719 5718 5718 5717 5717 5718 5718 5718 5719 5719 5718 5717 5717 5716
5720 5721 5721 5722 5722 5722 5722 5723 5723 5723 5723 5723 5723 5723 5722 5722 5721 5721 5720 5719 5719 5717 5716 5716 5715 5715 5714 5714 5713 5712 5711 5711 5710 5710 5711 5711 5711 5711 5711 5710 5710 5709 5708